Change the Weather History Date:

Wednesday, November 9, 2011

  Actual Average Record
Temperature  
Mean Temperature 50 °F 49 °F  
Max Temperature 63 °F 61 °F 78 °F (1980)
Min Temperature 36 °F 37 °F 19 °F (1967)
Degree Days  
Heating Degree Days 15 16  
Month to date heating degree days 159 131  
Since 1 July heating degree days 520 466  
Cooling Degree Days 0 0  
Month to date cooling degree days 0 0  
Year to date cooling degree days 1201 862  
Moisture  
Dew Point 42 °F    
Average Humidity 80    
Maximum Humidity 100    
Minimum Humidity 60    
Precipitation  
Precipitation 0.03 in 0.10 in 2.23 in (2000)
Month to date precipitation 1.11 0.96  
Year to date precipitation 36.72 39.29  
Snow  
Snow 0.00 in 0.00 in 3.20 in (1968)
Month to date snowfall 0.0 0.0  
Since 1 July snowfall 0.0 0.0  
Since 1 September snowfall 0.0 0.0  
Snow Depth 0.00 in    
Sea Level Pressure  
Sea Level Pressure 30.12 in    
Wind  
Wind Speed 2 mph (South)    
Max Wind Speed 13 mph    
Max Gust Speed 23 mph    
Visibility 6 miles    
Events Fog , Rain    
T = Trace of Precipitation, MM = Missing Value Source: NWS Daily Summary

Daily Weather History Graph

Daily Weather History Graph

Search for Another Location

Airport or City:

Trip Planner

Search our weather history database for the weather conditions in past years. The results will help you decide how hot, cold, wet, or windy it might be!

Date:

Astronomy

Nov. 09, 2011 Rise Set
Actual Time 6:59 AM EST 5:28 PM EST
Civil Twilight 6:32 AM EST 5:54 PM EST
Nautical Twilight 6:02 AM EST 6:25 PM EST
Astronomical Twilight 5:32 AM EST 6:55 PM EST
Moon 4:39 PM EST (11/9) 5:54 AM EST (11/9)
Length of Visible Light 11h 22m
Length of Day
10h 28m
Waxing Gibbous, 99% of the Moon is Illuminated
Nov 9
Waxing Gibbous
Nov 10
Full
Nov 18
Last Quarter
Nov 25
New
Dec 2
First Quarter

Hourly Weather History & Observations

Time (EST) Temp. Windchill Dew Point Humidity Pressure Visibility Wind Dir Wind Speed Gust Speed Precip Events Conditions
12:54 AM 39.9 °F - 39.0 °F 97% 30.17 in 9.0 mi Calm Calm - N/A   Clear
1:54 AM 39.9 °F - 37.9 °F 93% 30.17 in 10.0 mi Calm Calm - N/A   Clear
2:54 AM 37.0 °F - 36.0 °F 96% 30.16 in 10.0 mi Calm Calm - N/A   Clear
3:54 AM 37.0 °F - 35.1 °F 93% 30.16 in 10.0 mi Calm Calm - N/A   Clear
4:54 AM 36.0 °F - 35.1 °F 97% 30.17 in 8.0 mi Calm Calm - N/A   Scattered Clouds
5:03 AM 35.6 °F - 35.6 °F 100% 30.18 in 9.0 mi Calm Calm - N/A   Mostly Cloudy
5:15 AM 35.6 °F - 35.6 °F 100% 30.18 in 1.0 mi Calm Calm - N/A   Overcast
5:20 AM 35.6 °F - 35.6 °F 100% 30.18 in 0.2 mi Calm Calm - N/A Fog Fog
5:27 AM 37.4 °F - 37.4 °F 100% 30.17 in 0.2 mi Calm Calm - N/A Fog Fog
5:54 AM 36.0 °F 33.3 °F 36.0 °F 100% 30.17 in 0.2 mi SSE 3.5 mph - N/A Fog Fog
6:05 AM 35.6 °F - 35.6 °F 100% 30.18 in 0.5 mi Calm Calm - N/A Fog Fog
6:17 AM 35.6 °F 32.8 °F 35.6 °F 100% 30.18 in 0.2 mi South 3.5 mph - N/A Fog Fog
6:29 AM 35.6 °F - 35.6 °F 100% 30.18 in 0.2 mi Calm Calm - N/A Fog Fog
6:38 AM 35.6 °F - 35.6 °F 100% 30.18 in 0.5 mi Calm Calm - N/A Fog Fog
6:52 AM 35.6 °F - 35.6 °F 100% 30.18 in 0.2 mi Calm Calm - N/A Fog Fog
6:54 AM 36.0 °F - 36.0 °F 100% 30.18 in 0.2 mi Calm Calm - N/A Fog Fog
7:54 AM 36.0 °F - 36.0 °F 100% 30.19 in 0.5 mi Calm Calm - N/A Fog Fog
8:38 AM 37.4 °F - 37.4 °F 100% 30.19 in 1.5 mi Calm Calm - N/A   Overcast
8:41 AM 37.4 °F - 37.4 °F 100% 30.19 in 3.0 mi Calm Calm - N/A   Mostly Cloudy
8:54 AM 39.9 °F - 39.9 °F 100% 30.19 in 9.0 mi Calm Calm - N/A   Scattered Clouds
9:54 AM 44.1 °F - 44.1 °F 100% 30.18 in 10.0 mi Calm Calm - N/A   Clear
10:54 AM 57.9 °F - 48.0 °F 70% 30.13 in 10.0 mi South 5.8 mph - N/A   Clear
11:54 AM 62.1 °F - 48.9 °F 62% 30.08 in 10.0 mi Variable 5.8 mph - N/A   Clear
12:54 PM 62.1 °F - 50.0 °F 65% 30.06 in 10.0 mi South 8.1 mph - N/A   Mostly Cloudy
1:54 PM 61.0 °F - 50.0 °F 67% 30.06 in 10.0 mi SSW 10.4 mph - N/A   Clear
2:54 PM 61.0 °F - 50.0 °F 67% 30.04 in 10.0 mi South 6.9 mph - N/A   Clear
3:54 PM 60.1 °F - 50.0 °F 69% 30.02 in 10.0 mi South 5.8 mph - N/A   Clear
4:54 PM 59.0 °F - 50.0 °F 72% 30.02 in 10.0 mi SSE 3.5 mph - N/A   Clear
5:54 PM 57.9 °F - 50.0 °F 75% 30.01 in 10.0 mi SSE 3.5 mph - N/A   Clear
6:54 PM 55.9 °F - 50.0 °F 80% 30.02 in 10.0 mi Calm Calm - N/A   Scattered Clouds
7:54 PM 57.0 °F - 50.0 °F 77% 30.01 in 10.0 mi Calm Calm - N/A   Overcast
8:54 PM 55.4 °F - 51.8 °F 88% 30.03 in 6.0 mi Calm Calm - N/A Rain Light Rain
9:54 PM 53.1 °F - 52.0 °F 96% 30.01 in 6.0 mi SW 3.5 mph - 0.02 in   Overcast
10:54 PM 53.1 °F - 52.0 °F 96% 29.99 in 4.0 mi Calm Calm - N/A   Mostly Cloudy
11:49 PM 51.8 °F - 51.8 °F 100% 30.01 in 2.5 mi Calm Calm - N/A   Overcast
11:54 PM 52.0 °F - 51.1 °F 97% 29.97 in 2.5 mi Calm Calm - N/A   Overcast